Location: ?????
(33.6267°N, 35.4675°E)
Time: 11:23:12
(UTC+00:00)

Cosmos 1980 Rocket - Pass Details

Date: 12 November 2019
Orbit: 828 x 851 km, 71.0° (Epoch: 11 December)

Event Time Altitude Azimuth Distance (km) Brightness Sun altitude
Rises 15:53:37 0° 170° (S) 3,369 5.4 -16.1°
Reaches altitude 10° 15:56:21 10° 159° (SSE) 2,443 4.5 -16.6°
Maximum altitude 16:01:02 28° 102° (ESE) 1,538 3.0 -17.6°
Enters shadow 16:01:15 28° 98° (E) 1,541 3.0 -17.6°
